NOAA NWS Hourly Roundups by Site

Regional Weather Roundup for Bismarck, ND

To Select Another Site Choose from List

Select Site:  

000
ASUS43 KBIS 261410
RWRBIS

NWR BROADCAST TEXT
NATIONAL WEATHER SERVICE BISMARCK ND
900 AM CDT WED SEP 26 2018

NOTE: "FAIR" INDICATES FEW OR NO CLOUDS BELOW 12,000 FEET WITH NO
SIGNIFICANT WEATHER AND/OR OBSTRUCTIONS TO VISIBILITY.


CITY           SKY/WX    TMP DP  RH WIND       PRES   REMARKS
WILLISTON      PTSUNNY   41  36  82 SW9       29.98F
MINOT          CLOUDY    47  38  71 SW15      29.94F
MINOT AFB      CLOUDY    44  37  77 SW14      29.92F
BISMARCK       PTSUNNY   41  35  79 SW5       30.07F
DICKINSON      PTSUNNY   42  33  70 W14       30.04F
GARRISON         N/A     45  41  86 W13       29.99F
HETTINGER ARPT MOSUNNY   38  32  79 CALM      30.11F
JAMESTOWN      SUNNY     43  39  86 SW9       30.05F
CARRINGTON     FAIR      43  39  87 SW8       30.04F
HAZEN          FAIR      37  37 100 SW8       30.05F
LINTON           N/A    N/A N/A N/A SE3       30.12F
MANDAN         FAIR     N/A N/A N/A SW10      30.06F
OAKES          FAIR      41  41 100 W7        30.11F
RUGBY          FAIR      39  39 100 SW9       29.96F
STANLEY          N/A     43  41  93 SW13      29.95F
TIOGA          FAIR      41  41 100 SW17      29.96F
WATFORD CITY   FAIR      39  39 100 SW10      30.00F
$$

CITY           SKY/WX    TMP DP  RH WIND       PRES   REMARKS
GRAND FORKS    PTSUNNY   41  39  93 SW7       30.01F
GRAND FORKS AF FAIR      42  37  84 W7        30.01F
DEVILS LAKE    FAIR      43  38  82 W14       30.00F
FARGO          FAIR      42  39  89 SW6       30.07F
CANDO          CLOUDY    37  37 100 SW5       29.99F
CAVALIER       FAIR      41 N/A N/A MISG      29.96F
GRAFTON        FAIR      39  37  93 SW9       30.01S
GWINNER          N/A     43  39  87 W8        30.10F
LANGDON        FAIR      37  37 100 SW12      29.96F
ROLLA          CLOUDY    37  37 100 SW9       29.94F
WALHALLA         N/A     41  41 100 SW5       29.95F
$$

CITY           SKY/WX    TMP DP  RH WIND       PRES   REMARKS
ABERDEEN       SUNNY     42  38  85 SW6       30.15F
MOBRIDGE       SUNNY     43  39  86 S7        30.12F
BUFFALO          N/A     45  35  68 W13       30.09F
RAPID CITY     SUNNY     46  35  65 W5        30.19F
GLASGOW        CLOUDY    45  36  70 NW5       29.99F
SIDNEY         PTSUNNY   39  36  89 S12       30.02F
WOLF POINT     CLOUDY    40  37  89 W6        30.00F
GLENDIVE       MOSUNNY   38  35  89 S9        30.06F
MILES CITY     SUNNY     38  35  89 S6        30.10F
BAKER          MOSUNNY   46  34  62 SW12      30.09F
$$

CITY           SKY/WX    TMP DP  RH WIND       PRES   REMARKS
BILLINGS       MOCLDY    44  31  60 SW13      30.16S
GREAT FALLS    PTCLDY    44  35  70 SW10      30.14S
REGINA         LGT RAIN  46  37  71 W10       29.84S
ESTEVAN        LGT RAIN  45  37  76 W8        29.91S
$$



 

View Past Reports for Bismarck, ND.

Products Courtesy of NOAA-NWS
NWS Information Parsing Script by Ken True at Saratoga Weather - Script by SE Lincoln Weather.